sat.trackr.live / text

‹ back to catalog

STARLINK-5467

NORAD 55660 · 2023-021AJ

PAYLOAD ACTIVE UNKNOWN

§ Identity

Operator
Country
US
Launch date
2023-02-17
Launch site
AFWTR
Launch vehicle
Mass (kg)
RCS (m²)

Purposes: comms

External: N2YO · Heavens-Above · Gunter

§ Orbital elements

Epoch: 2026-05-24T23:06:22.284288Z

Period
96.11 min
Inclination
69.9988°
Eccentricity
0.0002578
Mean motion
14.98332942 rev/d
Perigee alt
570.3 km
Apogee alt
573.8 km
Semi-major
6,950.2 km
B*
1.1965e-5
RAAN
331.9855°
Arg perigee
271.6715°
Mean anomaly
88.4149°
Rev number
18,071

§ Raw data

STARLINK-54671 55660U 23021AJ  26144.96275792  .00000050  00000+0  11965-4 0  99942 55660  69.9988 331.9855 0002578 271.6715  88.4149 14.98332942180714

JSON: /api/v1/satellites/55660 · /tle

For live sub-satellite position, see the globe view (requires WebGL).

§ Visibility from observer

Set your observer location to see the next 7 days of passes ≥ 10°. The values pass through the URL so the page stays shareable.

No JS? Fill the form by hand. The geolocation button needs JavaScript.